FW4110 Weather Reports


Display with metric or nautical units.
time (UTC)temp
F
wind
direction
speed
MPH
gust
MPH
rain 1hr
in
rain 24hr
in
rain mn
in
humidity
%
barometer
mb
20260504220043 83 332 3.0 10.0 0.00 0.01 0.01 60 1004.8
20260504214541 83 239 3.0 13.0 0.00 0.01 0.01 60 1004.8
20260504213050 83 231 8.0 15.0 0.00 0.01 0.01 59 1004.8
20260504211535 83 150 5.0 15.0 0.00 0.01 0.01 60 1004.6
20260504210029 82 302 3.0 11.0 0.00 0.01 0.01 63 1004.7
20260504204536 81 151 6.0 15.0 0.00 0.01 0.01 63 1005.0
20260504203023 80 258 4.0 14.0 0.00 0.01 0.01 67 1005.2
20260504201514 78 275 6.0 15.0 0.01 0.01 0.01 69 1005.3
20260504200010 76 227 3.0 9.0 0.01 0.01 0.01 75 1005.3
20260504194507 72 246 2.0 8.0 0.01 0.01 0.01 81 1005.8
20260504193002 70 135 6.0 9.0 0.01 0.01 0.01 80 1005.8
20260504191603 71 284 1.0 4.0 0.00 0.00 0.00 80 1006.9
20260504190057 71 169 0.0 1.0 0.00 0.00 0.00 84 1006.8
20260504184558 73 296 0.0 1.0 0.00 0.00 0.00 78 1007.0
20260504183054 75 296 0.0 0.0 0.00 0.00 0.00 72 1006.9
20260504181554 76 299 0.0 3.0 0.00 0.00 0.00 68 1007.0
20260504180148 76 301 1.0 5.0 0.00 0.00 0.00 66 1006.9
20260504174548 76 183 3.0 7.0 0.00 0.00 0.00 65 1007.0
20260504173043 77 282 3.0 10.0 0.00 0.00 0.00 64 1007.2
20260504171542 76 133 4.0 12.0 0.00 0.00 0.00 67 1007.2
20260504081530 66 270 1.0 4.0 0.00 0.00 0.00 74 1009.6
20260504044602 67 244 1.0 11.0 0.00 0.00 0.00 73 1010.8
20260504043054 67 308 3.0 11.0 0.00 0.00 0.00 72 1011.1
20260504041547 67 134 2.0 8.0 0.00 0.00 0.00 72 1011.2
20260504040103 68 148 2.0 8.0 0.00 0.00 0.00 71 1011.3
20260504034606 68 89 0.0 9.0 0.00 0.00 0.00 71 1011.2
20260504033039 68 169 3.0 7.0 0.00 0.00 0.00 71 1012.1
20260504031537 68 198 2.0 7.0 0.00 0.00 0.00 70 1012.3
20260504030039 68 196 2.0 7.0 0.00 0.00 0.00 70 1012.0
20260504024533 68 178 2.0 6.0 0.00 0.00 0.00 70 1011.8
20260504023031 68 155 0.0 5.0 0.00 0.00 0.00 70 1011.6
20260504021529 69 168 1.0 5.0 0.00 0.00 0.00 69 1011.6
20260504020029 69 153 1.0 4.0 0.00 0.00 0.00 68 1011.4
20260504014525 70 175 0.0 4.0 0.00 0.00 0.00 67 1011.4
20260504013030 71 297 0.0 4.0 0.00 0.00 0.00 66 1011.2
20260504011523 71 189 1.0 6.0 0.00 0.00 0.00 65 1011.3
20260504010021 72 235 1.0 3.0 0.00 0.00 0.00 64 1011.1
20260504004518 73 245 1.0 4.0 0.00 0.00 0.00 63 1011.1
20260504003016 75 154 0.0 6.0 0.00 0.00 0.00 61 1011.0
20260504001516 76 204 2.0 6.0 0.00 0.00 0.00 59 1011.0
20260504000010 77 273 2.0 6.0 0.00 0.00 0.00 58 1011.1
20260503234510 77 223 3.0 8.0 0.00 0.00 0.00 58 1011.2
20260503233005 77 287 1.0 9.0 0.00 0.00 0.00 57 1011.3
20260503231504 77 260 4.0 11.0 0.00 0.00 0.00 56 1011.5
20260503224556 78 239 3.0 12.0 0.00 0.00 0.00 54 1011.9
20260503223052 78 277 3.0 14.0 0.00 0.00 0.00 54 1012.0
20260503221553 79 229 3.0 12.0 0.00 0.00 0.00 52 1012.0